Das Wetter in  D-61279 Heinzenberg / Taunus





Wetter Minimum- & Maximum-Werte im Mai 2008

Standort: Heinzenberg / Taunus - Höhe 297 m         8 24' 1" Ost 50 21' 51" Nord
(   3-stündige Aktualisierung    letzte Aktualisierung um 19:04 am 31.05.2008  )


Messgrösse

Minimum

Maximum

Durchschnitt

Temperatur West /
Luftfeuchte West
Anklicken für Monats-Diagramm

2,6 C

06:49
03.05.2008

30 %

18:20
10.05.2008

29,0 C

16:22
29.05.2008

95 %

15:35
31.05.2008

Temp

15,1 C

Feuchte

67 %

Temperatur Ost /
Luftfeuchte Ost
Anklicken für Monats-Diagramm

2,5 C

06:49
03.05.2008

--

--
--

29,7 C

16:33
29.05.2008

--

--
--

15,3 C

--

Luftdruck Anklicken für Monats-Diagramm

1004,4 hPa

16:37
17.05.2008

1029,1 hPa

07:54
03.05.2008

1015,2 hPa

Taupunkt

-0,5 C

06:11
05.05.2008

20,1 C

16:03
29.05.2008

8,5 C

Windchill
( gefühlte Temperatur )

0,5 C

13:52
01.05.2008

29,0 C

16:22
29.05.2008

14,4 C

Windgeschwindigkeit /
Windrichtung
Anklicken für Monats-Diagramm

---

47,1 km/h / NW

21:14
30.05.2008

4,6 km/h
SO

Helligkeit /
Sonnenschein
Anklicken für Monats-Diagramm
Anklicken für Monats-Diagramm

Sonnenschein:

219:08 Stunden

Max: 13:35 Std am
08.05.2008

119 klux

13:12
23.05.2008

37 klux

Solarstrahlung Anklicken für Monats-Diagramm

---

814 W/m

13:12
23.05.2008

271 W/m

Regenmenge
    Mai 2008
Anklicken für Monats-Diagramm

Insgesamt 19,0 l/m

in 18:15 Stunden
an 11 Tagen

6,2 l/m

20:44
30.05.2008

Gesamtmenge

19,0 l/m

Regen-Tage
    Mai 2008
Anklicken für Monats-Diagramm

>   0 mm/Tag

>   2 mm/Tag

>   5 mm/Tag

> 10 mm/Tag

> 20 mm/Tag

11 Tage     
3 Tage     
  1 Tag     
0 Tage     
0 Tage     

Eisige Tage Mai 2008 / 2007

Tmin ≤ -10C     

0 Tage

/

0 Tage

Eistage Mai 2008 / 2007

Tmax <     0C     

0 Tage

/

0 Tage

Frosttage Mai 2008 / 2007

Tmin ≤     0C     

0 Tage

/

0 Tage

Kalte Tage Mai 2008 / 2007

Tmax <   10C     

0 Tage

/

0 Tage

Warme Tage Mai 2008 / 2007

Tmax ≥   20C     

22 Tage

/

16 Tage

Sommertage Mai 2008 / 2007

Tmax ≥   25C     

8 Tage

/

6 Tage

Heisse Tage Mai 2008 / 2007

Tmax ≥   30C     

0 Tage

/

2 Tage


Monatsdiagramm Mai 2008

Die Kurven zeigen den Durchschnittswert des jeweiligen Tages an


Wetter-Monatsübersicht Mai 2008
Datum
  Temperatur
   Luftdruck
   Wind
  Regen
   Luftfeuchte
   Helligkeit

Sonnen-
schein


Temp.

Min.
Temp.

Max.
Temp.


Luftdruck

Min.
Luftdruck

Max.
Luftdruck

-Geschw.
Haupt-Richtg.

Max.
Wind

Menge /
Dauer


Feuchte

Min.
Feuchte

Max.
Feuchte


Helligkeit

Max.
Helligkeit

1.
Mai
9,7 C6,0 C
05:02
15,4 C
15:12
1012,7 hPa1007,7 hPa
00:02
1018,1 hPa
23:53
10,9 km/h
W-SW
35,0 km/h
14:52  
1,2 l/m
1:55 Stunden
70 %52 %
15:37
81 %
06:17
32,5 klux108,0 klux
13:02
6:05 Std 
2.
Mai
10,6 C6,6 C
05:33
17,3 C
15:58
1022,1 hPa1018,1 hPa
00:03
1026,6 hPa
23:54
7,1 km/h
W
31,7 km/h
14:38  
1,7 l/m
2:25 Stunden
71 %48 %
16:03
89 %
08:38
36 klux106 klux
14:18
6:30 Std 
3.
Mai
11,1 C2,6 C
06:49
20,1 C
16:09
1026,5 hPa1024,1 hPa
18:54
1029,1 hPa
07:54
3,9 km/h
SO
20,6 km/h
17:09  
---
65 %41 %
18:59
87 %
08:39
47 klux96 klux
13:39
11:10 Std 
4.
Mai
12,8 C4,1 C
06:55
21,9 C
16:55
1024,8 hPa1021,6 hPa
16:55
1026,9 hPa
06:55
4,4 km/h
SO
31,7 km/h
15:25  
---
59 %35 %
16:35
83 %
08:10
47,5 klux97,8 klux
12:20
12:35 Std 
5.
Mai
12,2 C3,4 C
06:31
19,1 C
16:51
1026,4 hPa1025,1 hPa
16:51
1028,0 hPa
07:31
4,6 km/h
SO
22,1 km/h
11:31  
---
61 %48 %
11:21
78 %
07:31
38,6 klux110,0 klux
13:41
7:30 Std 
6.
Mai
14,7 C6,5 C
06:37
23,5 C
15:37
1024,9 hPa1021,6 hPa
18:57
1027,6 hPa
04:52
5,8 km/h
SO
27,1 km/h
12:12  
---
65 %44 %
15:22
86 %
07:57
44 klux103 klux
12:32
9:55 Std 
7.
Mai
15,1 C6,7 C
06:28
23,4 C
17:33
1022,1 hPa1018,4 hPa
18:33
1024,5 hPa
06:28
6,3 km/h
SO
27,1 km/h
11:23  
---
61 %39 %
17:38
84 %
08:13
50 klux103 klux
13:23
12:50 Std 
8.
Mai
15,1 C5,6 C
06:39
24,2 C
17:44
1019,0 hPa1016,2 hPa
17:44
1021,6 hPa
06:39
6,1 km/h
O-SO
33,3 km/h
12:34  
---
57 %34 %
18:19
83 %
08:04
49 klux87 klux
12:59
13:35 Std 
9.
Mai
16,2 C6,7 C
05:29
25,9 C
16:44
1016,6 hPa1014,0 hPa
16:44
1018,8 hPa
00:09
6,6 km/h
O-SO
27,5 km/h
12:59  
---
56 %33 %
18:59
81 %
08:04
48,3 klux90,7 klux
12:24
13:30 Std 
10.
Mai
16,6 C7,2 C
06:25
26,0 C
17:45
1018,0 hPa1016,0 hPa
17:45
1020,3 hPa
07:50
6,1 km/h
O-SO
34,1 km/h
13:40  
---
55 %30 %
18:20
81 %
08:05
49,4 klux87,1 klux
13:25
13:35 Std 
11.
Mai
16,4 C7,0 C
06:21
24,9 C
16:51
1018,5 hPa1016,1 hPa
16:51
1021,2 hPa
08:01
6,9 km/h
O-SO
32,6 km/h
18:21  
---
53 %30 %
18:51
79 %
07:41
49,1 klux86,7 klux
13:01
13:35 Std 
12.
Mai
16,6 C7,4 C
06:47
25,7 C
17:37
1017,4 hPa1015,0 hPa
17:37
1019,3 hPa
06:47
7,8 km/h
SO
28,0 km/h
17:07  
---
53 %32 %
15:42
78 %
07:47
49,1 klux94,7 klux
14:47
12:52 Std 
13.
Mai
16,7 C7,4 C
06:19
25,9 C
16:09
1015,3 hPa1012,0 hPa
18:19
1018,1 hPa
04:54
2,1 km/h
SO
20,6 km/h
12:59  
---
57 %34 %
16:04
80 %
07:59
44,9 klux97,2 klux
13:44
11:05 Std 
14.
Mai
16,8 C8,6 C
06:25
25,4 C
17:30
1013,3 hPa1009,9 hPa
17:30
1016,0 hPa
06:25
1,9 km/h
SO
20,1 km/h
13:40  
---
60 %37 %
17:50
81 %
07:35
44,3 klux85,7 klux
13:00
10:35 Std 
15.
Mai
15,0 C10,7 C
06:56
22,2 C
14:51
1009,4 hPa1007,1 hPa
14:51
1011,5 hPa
03:31
2,5 km/h
SO
25,0 km/h
15:16  
1,5 l/m
1:50 Stunden
73 %54 %
14:56
86 %
23:47
24,0 klux102,0 klux
11:31
1:00 Std 
16.
Mai
16,2 C12,4 C
05:22
23,2 C
17:32
1007,3 hPa1005,0 hPa
17:32
1009,3 hPa
00:22
8,2 km/h
W
34,3 km/h
15:07  
0,3 l/m
1:30 Stunden
73 %44 %
15:47
89 %
07:27
36 klux111 klux
13:07
5:30 Std 
17.
Mai
14,7 C11,3 C
02:22
19,3 C
16:37
1005,4 hPa1004,4 hPa
16:37
1007,3 hPa
23:53
9,3 km/h
W-SW
35,2 km/h
13:42  
1,1 l/m
2:45 Stunden
75 %57 %
16:42
88 %
06:57
27 klux107 klux
11:07
2:50 Std 
18.
Mai
12,6 C10,0 C
23:59
16,4 C
16:18
1009,0 hPa1007,3 hPa
00:03
1011,7 hPa
23:59
2,0 km/h
N-NO
17,6 km/h
15:33  
---
77 %63 %
19:18
88 %
06:53
25 klux104 klux
14:33
1:45 Std 
19.
Mai
11,6 C5,6 C
06:44
18,2 C
15:24
1012,6 hPa1011,7 hPa
00:04
1014,7 hPa
23:59
1,4 km/h
N
17,8 km/h
15:39  
---
67 %48 %
15:34
85 %
07:59
33 klux111 klux
13:39
4:25 Std 
20.
Mai
11,9 C8,0 C
06:14
16,4 C
17:34
1015,4 hPa1014,0 hPa
17:34
1016,9 hPa
09:29
2,6 km/h
N
23,5 km/h
12:09  
---
61 %48 %
16:34
70 %
06:29
31 klux110 klux
13:09
3:16 Std 
21.
Mai
12,6 C7,6 C
06:05
17,7 C
15:05
1016,2 hPa1014,9 hPa
15:05
1017,2 hPa
06:05
1,5 km/h
N
22,1 km/h
14:05  
---
60 %45 %
17:35
79 %
07:45
27 klux108 klux
13:35
2:15 Std 
22.
Mai
14,3 C10,7 C
06:21
18,6 C
18:51
1015,7 hPa1014,8 hPa
18:51
1016,8 hPa
06:26
0,7 km/h
O
17,9 km/h
16:01  
---
60 %48 %
19:01
73 %
07:56
29 klux76 klux
09:41
2:30 Std 
23.
Mai
13,7 C6,0 C
05:47
20,7 C
14:57
1014,5 hPa1012,7 hPa
17:37
1016,3 hPa
05:47
4,4 km/h
O-SO
30,0 km/h
15:12  
---
66 %48 %
15:02
85 %
08:12
41,8 klux119,0 klux
13:12
6:25 Std 
24.
Mai
15,1 C7,1 C
06:08
22,6 C
16:38
1011,5 hPa1009,2 hPa
16:38
1014,1 hPa
05:33
3,7 km/h
O-SO
23,5 km/h
12:38  
---
5 Minuten
65 %43 %
16:48
86 %
08:03
37 klux106 klux
12:53
5:30 Std 
25.
Mai
16,9 C12,4 C
05:29
23,7 C
16:14
1012,3 hPa1010,9 hPa
00:04
1014,3 hPa
09:54
3,7 km/h
O-SO
21,8 km/h
14:34  
2,4 l/m
2:55 Stunden
75 %57 %
16:24
90 %
08:44
31 klux108 klux
11:54
4:05 Std 
26.
Mai
16,8 C13,5 C
05:20
22,7 C
17:10
1011,5 hPa1009,3 hPa
18:55
1013,2 hPa
01:45
0,3 km/h
SO
7,1 km/h
23:16  
0,2 l/m
40 Minuten
81 %65 %
17:30
90 %
10:20
16 klux85 klux
16:20
35 Min 
27.
Mai
18,9 C13,3 C
05:11
25,9 C
16:26
1010,8 hPa1007,9 hPa
17:36
1013,3 hPa
06:36
2,3 km/h
N
16,6 km/h
15:30  
0,3 l/m
55 Minuten
79 %66 %
16:31
92 %
09:06
32,4 klux89,0 klux
15:26
3:01 Std 
28.
Mai
20,9 C15,7 C
06:37
27,2 C
17:12
1009,9 hPa1006,5 hPa
03:57
1013,8 hPa
23:52
3,9 km/h
NW
26,5 km/h
17:52  
---
69 %52 %
17:57
82 %
07:37
39,2 klux94,0 klux
12:52
8:45 Std 
29.
Mai
20,8 C14,5 C
05:07
29,0 C
16:22
1009,5 hPa1006,4 hPa
16:22
1014,0 hPa
01:37
2,2 km/h
O-SO
35,7 km/h
19:08  
---
74 %57 %
16:28
86 %
07:08
32,5 klux90,7 klux
11:43
4:59 Std 
30.
Mai
19,4 C16,0 C
04:39
24,6 C
16:34
1008,9 hPa1006,8 hPa
02:09
1012,8 hPa
21:09
7,4 km/h
NW
47,1 km/h
21:14  
6,2 l/m
2:00 Stunden
83 %69 %
16:34
92 %
23:10
26,1 klux89,0 klux
14:04
2:35 Std 
31.
Mai
17,3 C15,0 C
23:46
22,4 C
18:55
1013,4 hPa1010,9 hPa
00:00
1016,2 hPa
13:20
4,6 km/h
W
27,1 km/h
13:25  
4,1 l/m
1:15 Stunden
89 %75 %
19:15
95 %
15:35
23,6 klux110,0 klux
15:10
4:20 Std 



Mai
2008

Temperatur

  

Luftdruck

  

Wind

  

Regen

  

Luftfeuchte

  

Helligkeit

Sonnen-
schein

Min

Max

Min

Max

Max

Max

Min

Max

Max

Max

15,1 C

2,6 C

06:49 Uhr
03.05.2008

29,0 C

16:22 Uhr
29.05.2008

1015,2 hPa

1004,4 hPa

16:37 Uhr
17.05.2008

1029,1 hPa

07:54 Uhr
03.05.2008

4,6 km/h

SO

47,1 km/h

21:14 Uhr
30.05.2008

6,2 l/m

2:00 Stunden
30.05.2008

67 %

30 %

18:20 Uhr
10.05.2008

95 %

15:35 Uhr
31.05.2008

37 klux

119,0 klux

13:12 Uhr
23.05.2008

13:35 Std

am
08.05.2008

Gesamt

Gesamt

19,0 l/m

11 Tage
18:15 h

219:08 Std


Wetter-Diagramme Mai 2008     Heinzenberg / Taunus   
TemperaturLuftfeuchte
SolarstrahlungLuftdruck
HelligkeitSonnenschein
RegenmengeRegendauer
Wind-GeschwindigkeitWind-Richtung